TABS, Texas Automated Buoy System, NOAA HAZMAT, Ocean Observatory, Real Time Oceanographic Data Supporting Oil Spill Prevention and Response

Texas General Land Office  Texas General
 Land Office
 Oil Spill Prevention
 & Response
Texas Automated Buoy System
Real Time Ocean Observations
Supporting Oil Spill Prevention and Response since 1995
Geochemical and Environmental Research Group

TABS Buoy J -- Texas Automated Buoy System

TABS Buoy J Conditions at 04/18/2014 21:30 UTC (04/18/2014 16:30 CDT)
26° 11.4840'N   97° 3.0420'W
AA3900 DCS - sensor depth 2m
Anemometer height: 4m
Water Depth: 68 feet (20 meters)
Speed: 36.17 cm/s (0.70 kts) Direction: 191 °T (S) Water Temp: 20°C (67 °F)
System Voltage: 12.2 V Signal Strength: -1.8 dB Ping Count: 48
Wind: 4.7 m/s (9.2 kts)
          From 53°T (NE)
Air Temp: 19 °C (66 °F)
Relative Humidity:  N/A
Pressure: N/A

  


IMPORTANT: Notice to Mariners


Today's System Data (download)

   Date   |  Time  | VBatt |  SigStr| Comp | Nping| Tx | Ty | ADCP | ADCP | VBatt |
          |  (UTC) | (Oper)|   (dB) | (°M) |      |    |    | Volt | Curr |(sleep)|
==========+========+=======+========+======+======+====+====+======+======+=======+
04/18/2014 00:00:00    11.8   -1.80    48.6     53   -3    -3    4.0    0.0   -0.1
04/18/2014 00:30:00    11.8   -1.76    53.7     49   -4    -4    5.0    0.0   -0.1
04/18/2014 01:00:00    11.8   -1.75    58.6     62   -2    -4    5.0    0.0   -0.1
04/18/2014 01:30:00    11.8   -1.73    50.5     55   -3    -4    5.0    0.0   -0.1
04/18/2014 02:00:00    11.8   -1.81    54.1     50   -3    -4    4.0    0.0   -0.1
04/18/2014 02:30:00    11.8   -1.82    54.5     54   -3    -3    5.0    0.0   -0.1
04/18/2014 03:00:00    11.8   -1.83    56.5     45   -3    -4    5.0    0.0   -0.1
04/18/2014 03:30:00    11.7   -1.83    56.1     60   -3    -5    5.0    0.0   -0.1
04/18/2014 04:00:00    11.7   -1.79    52.9     58   -3    -4    5.0    0.0   -0.1
04/18/2014 04:30:00    11.7   -1.89    53.0     56   -3    -4    5.0    0.0   -0.1
04/18/2014 05:00:00    11.7   -1.86    51.7     59   -3    -4    4.0    0.0   -0.1
04/18/2014 05:30:00    11.7   -1.84    56.2     52   -2    -3    4.0    0.0   -0.1
04/18/2014 06:00:00    11.7   -1.89    51.0     50   -2    -3    4.0    0.0   -0.1
04/18/2014 06:30:00    11.7   -1.89    61.5     52   -1    -3    4.0    0.0   -0.1
04/18/2014 07:00:00    11.7   -1.92    50.2     56   -2    -2    3.0    0.0   -0.1
04/18/2014 07:30:00    11.7   -1.88    47.3     51   -2    -2    3.0    0.0   -0.1
04/18/2014 08:00:00    11.7   -1.85    44.1     49   -2    -2    3.0    0.0   -0.1
04/18/2014 08:30:00    11.7   -1.94    44.0     53   -2    -2    3.0    0.0   -0.1
04/18/2014 09:00:00    11.7   -1.92    32.1     56   -2    -2    3.0    0.0   -0.1
04/18/2014 09:30:00    11.7   -1.91    27.7     56   -2    -1    3.0    0.0   -0.1
04/18/2014 10:00:00    11.7   -1.96    29.4     57   -3    -1    3.0    0.0   -0.1
04/18/2014 10:30:00    11.7   -1.94    22.0     55   -2    -1    3.0    0.0   -0.1
04/18/2014 11:00:00    11.7   -1.91    27.7     50   -2    -1    3.0    0.0   -0.1
04/18/2014 11:30:00    11.7   -1.93    33.2     59   -2    -1    3.0    0.0   -0.1
04/18/2014 12:00:00    11.7   -1.94    26.7     54   -3    -1    3.0    0.0   -0.1
04/18/2014 12:30:00    11.7   -1.88    28.9     47   -2    -1    3.0    0.0   -0.1
04/18/2014 13:00:00    11.7   -1.89    29.3     51   -2    -1    3.0    0.0   -0.1
04/18/2014 13:30:00    12.0   -2.00    23.5     47   -3    -1    3.0    0.0   -0.1
04/18/2014 14:00:00    12.0   -1.94    25.9     51   -2     0    3.0    0.0   -0.1
04/18/2014 14:30:00    12.0   -1.92    32.5     59   -3     0    3.0    1.0   -0.1
04/18/2014 15:00:00    12.1   -1.92    21.7     52   -3     0    3.0    0.0   -0.1
04/18/2014 15:30:00    12.2   -1.85    34.5     55   -3    -1    3.0    1.0   -0.1
04/18/2014 16:00:00    12.1   -1.91    39.2     50   -3    -1    4.0    1.0   -0.1
04/18/2014 16:30:00    12.1   -1.92    33.3     53   -4    -2    4.0    1.0   -0.1
04/18/2014 17:00:00    12.1   -1.93    30.1     50   -4    -1    4.0    1.0   -0.1
04/18/2014 17:30:00    12.2   -1.87    28.5     56   -4    -2    5.0    1.0   -0.1
04/18/2014 18:00:00    12.2   -1.97    20.9     47   -4    -1    5.0    0.0   -0.1
04/18/2014 18:30:00    12.2   -1.88    22.9     54   -5    -2    5.0    0.0   -0.1
04/18/2014 19:00:00    12.1   -1.87    34.1     59   -4    -1    5.0    1.0   -0.1
04/18/2014 19:30:00    12.1   -1.81    32.3     55   -5    -2    5.0    1.0   -0.1
04/18/2014 20:00:00    12.1   -1.79    37.4     49   -5    -2    5.0    1.0   -0.1
04/18/2014 20:30:00    12.1   -1.78    33.7     42   -5    -1    5.0    1.0   -0.1
04/18/2014 21:00:00    12.2   -1.81    24.5     58   -4    -1    5.0    1.0   -0.1
04/18/2014 21:30:00    12.2   -1.79    28.5     48   -5    -2    5.0    1.0   -0.1